FW3698 Weather Reports


time (UTC)temp
C
wind
direction
speed
KPH
gust
KPH
rain 1hr
cm
rain 24hr
cm
rain mn
cm
humidity
%
barometer
mb
20260503200123 19 293 0.0 0.0 0.00 0.00 0.00 72 1013.6
20260503195124 19 293 0.0 0.0 0.00 0.00 0.00 72 1013.6
20260503194122 19 293 0.0 0.0 0.00 0.00 0.00 74 1013.7
20260503193124 19 292 1.6 3.2 0.00 0.00 0.00 74 1013.9
20260503192143 18 292 1.6 3.2 0.00 0.00 0.00 76 1013.9
20260503191122 18 292 0.0 3.2 0.00 0.00 0.00 76 1013.9
20260503190124 18 270 0.0 0.0 0.00 0.00 0.00 76 1014.1
20260503185122 18 270 0.0 0.0 0.00 0.00 0.00 76 1014.1
20260503184122 17 270 0.0 0.0 0.00 0.00 0.00 77 1014.2
20260503183122 17 270 0.0 0.0 0.00 0.00 0.00 77 1014.2
20260503182123 17 270 0.0 0.0 0.00 0.00 0.00 81 1014.2
20260503181144 17 270 0.0 0.0 0.00 0.00 0.00 81 1014.2
20260503180123 17 270 0.0 0.0 0.00 0.00 0.00 81 1014.2
20260503175122 17 270 0.0 0.0 0.00 0.00 0.00 81 1014.2
20260503174124 16 270 0.0 0.0 0.00 0.00 0.00 82 1014.4
20260503173123 16 270 0.0 0.0 0.00 0.00 0.00 82 1014.4
20260503172124 16 270 0.0 0.0 0.00 0.00 0.00 82 1014.5
20260503171122 16 270 0.0 0.0 0.00 0.00 0.00 82 1014.5
20260503170122 16 158 0.0 0.0 0.00 0.00 0.00 82 1014.5
20260503160122 15 158 0.0 0.0 0.00 0.00 0.00 81 1014.9
20260503150143 13 158 0.0 0.0 0.00 0.00 0.00 83 1015.0
20260503140122 12 158 0.0 0.0 0.00 0.00 0.00 81 1014.8
20260503131145 12 158 0.0 0.0 0.00 0.00 0.00 76 1014.7
20260503130122 12 158 0.0 0.0 0.00 0.00 0.00 76 1014.7
20260503120122 12 158 0.0 0.0 0.00 0.00 0.00 76 1014.5
20260503110122 13 158 0.0 0.0 0.00 0.00 0.00 72 1014.6
20260503100124 13 158 0.0 0.0 0.00 0.00 0.00 75 1014.5
20260503090122 14 158 0.0 0.0 0.00 0.00 0.00 71 1014.2
20260503081124 14 158 0.0 0.0 0.00 0.00 0.00 77 1014.4
20260503080124 14 158 0.0 0.0 0.00 0.00 0.00 77 1014.2
20260503072122 15 158 0.0 0.0 0.00 0.00 0.00 74 1014.1
20260503071124 15 158 0.0 0.0 0.00 0.00 0.00 74 1014.1
20260503070122 15 158 0.0 0.0 0.00 0.00 0.00 74 1014.0
20260503060122 16 158 0.0 0.0 0.00 0.00 0.00 76 1013.8
20260503055124 16 158 0.0 0.0 0.00 0.00 0.00 76 1013.8
20260503054122 16 158 0.0 0.0 0.00 0.00 0.00 76 1013.8
20260503053123 16 158 0.0 0.0 0.00 0.00 0.00 76 1013.9
20260503052123 17 158 0.0 0.0 0.00 0.00 0.00 72 1013.9
20260503051123 17 158 1.6 3.2 0.00 0.00 0.00 72 1013.9
20260503050123 17 158 1.6 3.2 0.00 0.00 0.00 72 1013.7
20260503045143 17 158 0.0 3.2 0.00 0.00 0.00 72 1013.7
20260503044143 17 158 0.0 0.0 0.00 0.00 0.00 71 1013.6
20260503043123 17 158 0.0 0.0 0.00 0.00 0.00 71 1013.6
20260503042122 18 158 0.0 0.0 0.00 0.00 0.00 69 1013.5
20260503041144 18 158 0.0 0.0 0.00 0.00 0.00 69 1013.5
20260503040122 21 158 0.0 0.0 0.00 0.00 0.00 62 1013.2
20260503035122 21 158 0.0 0.0 0.00 0.00 0.00 62 1013.2
20260503034122 21 180 0.0 0.0 0.00 0.00 0.00 62 1013.0
20260503033124 21 180 0.0 0.0 0.00 0.00 0.00 62 1013.0
20260503032122 21 158 0.0 0.0 0.00 0.00 0.00 62 1012.9
20260503031123 21 158 1.6 3.2 0.00 0.00 0.00 62 1012.9
20260503030124 23 158 1.6 3.2 0.00 0.00 0.00 56 1012.8
20260503025122 23 121 1.6 3.2 0.00 0.00 0.00 56 1012.8
20260503024144 23 113 1.6 3.2 0.00 0.00 0.00 56 1012.7
20260503023122 23 113 0.0 3.2 0.00 0.00 0.00 56 1012.8
20260503022124 23 113 0.0 0.0 0.00 0.00 0.00 54 1012.8
20260503021124 23 113 0.0 0.0 0.00 0.00 0.00 54 1012.8
20260503020122 23 270 0.0 0.0 0.00 0.00 0.00 54 1013.1
20260503015122 23 270 3.2 4.8 0.00 0.00 0.00 54 1013.1
20260503014122 23 270 3.2 4.8 0.00 0.00 0.00 54 1013.2
20260503013122 23 270 3.2 4.8 0.00 0.00 0.00 54 1013.4
20260503012122 23 270 3.2 4.8 0.00 0.00 0.00 53 1013.4
20260503011123 23 290 4.8 8.0 0.00 0.00 0.00 53 1013.4
20260503010143 23 292 4.8 8.0 0.00 0.00 0.00 53 1013.5
20260503005145 23 292 6.4 11.3 0.00 0.00 0.00 53 1013.5
20260503004122 23 292 6.4 11.3 0.00 0.00 0.00 54 1013.9
20260503003123 23 276 4.8 11.3 0.00 0.00 0.00 54 1013.9
20260503002143 23 270 4.8 6.4 0.00 0.00 0.00 54 1014.0
20260503001123 23 270 4.8 6.4 0.00 0.00 0.00 54 1014.0
20260503000123 23 270 4.8 6.4 0.00 0.00 0.00 55 1014.2
20260502235122 23 5 3.2 6.4 0.00 0.00 0.00 55 1014.2
20260502234122 23 23 3.2 4.8 0.00 0.00 0.00 55 1014.4
20260502233144 23 343 4.8 9.7 0.00 0.00 0.00 55 1014.4
20260502232122 23 337 6.4 9.7 0.00 0.00 0.00 55 1014.7
20260502231123 23 337 3.2 9.7 0.00 0.00 0.00 55 1014.7
20260502230143 22 337 3.2 4.8 0.00 0.00 0.00 61 1015.0
20260502225143 22 301 3.2 4.8 0.00 0.00 0.00 61 1015.0
20260502224122 22 292 3.2 4.8 0.00 0.00 0.00 61 1015.4
20260502223122 22 36 3.2 4.8 0.00 0.00 0.00 61 1015.6
20260502222122 22 45 3.2 4.8 0.00 0.00 0.00 61 1015.6
20260502221123 22 45 3.2 4.8 0.00 0.00 0.00 61 1015.6
20260502220122 19 45 3.2 4.8 0.00 0.00 0.00 71 1016.0
20260502215145 19 314 1.6 4.8 0.00 0.00 0.00 71 1016.0
20260502214122 19 292 1.6 3.2 0.00 0.00 0.00 71 1016.2
20260502213123 19 292 1.6 3.2 0.00 0.00 0.00 71 1016.2
20260502212122 19 292 1.6 3.2 0.00 0.00 0.00 71 1016.2
20260502211124 19 292 4.8 8.0 0.00 0.00 0.00 71 1016.2
20260502210123 18 292 4.8 8.0 0.00 0.00 0.00 77 1016.6
20260502205122 18 331 6.4 11.3 0.00 0.00 0.00 77 1016.6
20260502204122 18 337 6.4 11.3 0.00 0.00 0.00 77 1016.8
20260502203122 18 291 4.8 11.3 0.00 0.00 0.00 77 1016.8
20260502202122 18 270 3.2 4.8 0.00 0.00 0.00 77 1016.8
20260502201143 18 270 1.6 4.8 0.00 0.00 0.00 77 1016.8